Regional Weather Roundup
Issued by NWS

Home | Current Version | Previous Version | Text Only | Print | Product List | Glossary On
Versions: 1 2 3 4 5 6 7 8 9 10 11 12 13 14 15 16 17 18 19 20 21 22 23 24 25 26 27 28 29 30 31 32 33 34 35 36 37 38 39 40 41 42 43 44 45 46 47 48 49 50
000
ASUS43 KTOP 200059
RWRKS

WEATHER ROUNDUP FOR KANSAS
NATIONAL WEATHER SERVICE GOODLAND KS
700 PM CST FRI DEC 19 2014

NOTE:  "FAIR" INDICATES FEW OR NO CLOUDS BELOW 12,000 FEET WITH NO
SIGNIFICANT WEATHER AND/OR OBSTRUCTIONS TO VISIBILITY.

KSZ001>006-013>018-027>032-041>047-200200-
NORTHWEST KANSAS

CITY           SKY/WX    TMP DP  RH WIND       PRES   REMARKS
GOODLAND       CLEAR     34  22  61 SW8       30.05S
HAYS           FAIR      36  27  69 S6        30.09S
HILL CITY      CLEAR     40  26  57 SW9       30.06S
RUSSELL        CLEAR     33  32  96 S9        30.08F
$$

KSZ061>065-074>080-084>089-200200-
SOUTHWEST KANSAS

CITY           SKY/WX    TMP DP  RH WIND       PRES   REMARKS
DODGE CITY     CLEAR     31  28  89 S8        30.12R
ELKHART          N/A    N/A N/A N/A MISG        N/A
GARDEN CITY    CLEAR     32  31  96 S9        30.10R
GREAT BEND     CLEAR     36  28  75 S9        30.12F
LIBERAL        CLEAR     36  28  75 S8        30.13S
$$

KSZ066>073-081>083-090>101-200200-
SOUTHEAST KANSAS

CITY           SKY/WX    TMP DP  RH WIND       PRES   REMARKS
CHANUTE        CLOUDY    35  34  96 CALM      30.21S FOG
COFFEYVILLE    CLOUDY    37  35  92 N3        30.20F FOG
HUTCHINSON     CLOUDY    37  34  89 S6        30.16S
MEDICINE LODGE   N/A     38  35  89 S7        30.16F
NEWTON         CLOUDY    34  28  80 S6        30.18R
PARSONS        CLOUDY    37  36  96 N3        30.21F FOG
WICHITA INTL   CLOUDY    37  33  85 S7        30.18S
WICHITA JABRA  CLOUDY    35  32  88 S6        30.18S
WICHITA MCCONL CLOUDY    36  33  90 S5        30.19R
WINFIELD       CLOUDY    37  34  89 SW3       30.21R
$$

KSZ007>012-019>026-033>040-048>060-102>105-200200-
NORTHEAST KANSAS

CITY           SKY/WX    TMP DP  RH WIND       PRES   REMARKS
CONCORDIA      CLOUDY    32  31  96 S9        30.12F FOG
EMPORIA        CLOUDY    32  28  85 W5        30.20R
LAWRENCE       CLOUDY    33  29  85 SW3       30.22R
MANHATTAN      CLOUDY    34  30  85 CALM      30.18S
OLATHE IND     CLOUDY    32  31  96 CALM      30.20S FOG
OLATHE EXE     CLOUDY    33  32  96 SE3       30.19S FOG
SALINA         CLOUDY    34  31  88 SE9       30.15F
TOPEKA BILLARD CLOUDY    34  28  79 SW3       30.21S
TOPEKA FORBES  CLOUDY    33  28  81 SW5       30.20R
$$



USA.gov is the U.S. government's official web portal to all federal, state and local government web resources and services.